Weather History for Ithaca, NY

Change the Weather History Date:

Monday, December 2, 2013

  Actual Average Record
Temperature  
Mean Temperature 34 °F -  
Max Temperature 37 °F 37 °F 66 °F (1998)
Min Temperature 32 °F 23 °F -3 °F (1989)
Degree Days  
Heating Degree Days 30    
Moisture  
Dew Point 32 °F    
Average Humidity 88    
Maximum Humidity 96    
Minimum Humidity 79    
Precipitation  
Precipitation 0.00 in - - ()
Sea Level Pressure  
Sea Level Pressure 29.93 in    
Wind  
Wind Speed 3 mph (SSE)    
Max Wind Speed 7 mph    
Max Gust Speed -    
Visibility 9 miles    
Events Rain    
Averages and records for this station are not official NWS values.
T = Trace of Precipitation, MM = Missing Value Source: NWS Daily Summary

Daily Weather History Graph

Daily Weather History Graph

Search for Another Location

Airport:

Trip Planner

Search our weather history database for the weather conditions in past years. The results will help you decide how hot, cold, wet, or windy it might be!

Date:

Astronomy

Dec. 02, 2013 Rise Set
Actual Time 7:17 AM EST 4:33 PM EST
Civil Twilight 6:45 AM EST 5:05 PM EST
Nautical Twilight 6:10 AM EST 5:40 PM EST
Astronomical Twilight 5:36 AM EST 6:14 PM EST
Moon 6:38 AM EST (12/2) 4:35 PM EST (12/2)
Length of Visible Light 10h 19m
Length of Day
9h 16m
Waning Crescent, 0% of the Moon is Illuminated
Dec 2
Waning Crescent
Dec 2
New
Dec 9
First Quarter
Dec 17
Full
Dec 25
Last Quarter

Hourly Weather History & Observations

Time (EST) Temp. Windchill Dew Point Humidity Pressure Visibility Wind Dir Wind Speed Gust Speed Precip Events Conditions
12:56 AM 32.9 °F - 31.1 °F 93% 29.99 in 8.0 mi Calm Calm - N/A   Overcast
1:56 AM 32.9 °F 29.8 °F 31.1 °F 93% 29.98 in 7.0 mi East 3.5 mph - N/A   Overcast
2:56 AM 32.9 °F 29.8 °F 32.0 °F 96% 29.97 in 7.0 mi East 3.5 mph - N/A   Overcast
3:56 AM 32.0 °F - 31.1 °F 96% 29.96 in 5.0 mi Calm Calm - N/A   Overcast
4:47 AM 33.8 °F 30.8 °F 30.2 °F 87% 29.92 in 8.0 mi SE 3.5 mph - N/A   Overcast
4:56 AM 32.9 °F - 31.1 °F 93% 29.96 in 8.0 mi Calm Calm - N/A   Overcast
5:15 AM 32.0 °F 28.7 °F 30.2 °F 93% 29.91 in 7.0 mi East 3.5 mph - N/A   Overcast
5:56 AM 32.9 °F - 31.1 °F 93% 29.96 in 8.0 mi Calm Calm - N/A   Overcast
6:19 AM 33.8 °F 30.8 °F 30.2 °F 87% 29.91 in 7.0 mi East 3.5 mph - N/A   Overcast
6:20 AM 32.0 °F - 30.2 °F 93% 29.91 in 10.0 mi Calm Calm - N/A   Overcast
6:56 AM 32.9 °F 29.8 °F 31.1 °F 93% 29.95 in 10.0 mi SSE 3.5 mph - N/A   Overcast
7:56 AM 32.9 °F 28.5 °F 31.1 °F 93% 29.95 in 10.0 mi SSE 4.6 mph - N/A   Overcast
8:56 AM 34.0 °F 29.8 °F 31.1 °F 89% 29.96 in 10.0 mi SSE 4.6 mph - N/A   Overcast
9:56 AM 34.9 °F 30.8 °F 31.1 °F 86% 29.96 in 10.0 mi South 4.6 mph - N/A   Overcast
10:56 AM 36.9 °F 32.2 °F 31.1 °F 80% 29.94 in 10.0 mi SSE 5.8 mph - N/A   Overcast
11:56 AM 36.9 °F 32.2 °F 32.0 °F 83% 29.93 in 10.0 mi SSE 5.8 mph - N/A   Overcast
12:56 PM 36.9 °F 33.1 °F 32.0 °F 83% 29.91 in 10.0 mi South 4.6 mph - N/A   Overcast
1:56 PM 36.9 °F - 32.0 °F 83% 29.90 in 10.0 mi Calm Calm - N/A   Overcast
2:56 PM 37.9 °F 34.4 °F 32.0 °F 79% 29.89 in 10.0 mi South 4.6 mph - N/A   Overcast
3:56 PM 36.9 °F 34.3 °F 32.0 °F 83% 29.89 in 10.0 mi SE 3.5 mph - N/A   Overcast
4:56 PM 36.0 °F 33.3 °F 32.0 °F 86% 29.90 in 10.0 mi SSE 3.5 mph - N/A   Overcast
5:56 PM 36.0 °F - 31.1 °F 82% 29.91 in 10.0 mi Calm Calm - N/A   Overcast
6:56 PM 36.9 °F 32.2 °F 32.0 °F 83% 29.92 in 10.0 mi South 5.8 mph - N/A   Overcast
7:56 PM 36.0 °F 32.1 °F 32.0 °F 86% 29.92 in 10.0 mi SSE 4.6 mph - 0.00 in Rain Light Rain Showers
8:56 PM 36.9 °F - 32.0 °F 83% 29.91 in 10.0 mi Calm Calm - 0.00 in   Overcast
9:56 PM 36.0 °F - 32.0 °F 86% 29.91 in 10.0 mi Calm Calm - N/A   Overcast
10:56 PM 36.0 °F 31.1 °F 32.0 °F 86% 29.91 in 10.0 mi NW 5.8 mph - N/A   Overcast
11:31 PM 35.6 °F 30.7 °F 33.8 °F 93% 29.88 in 6.0 mi NW 5.8 mph - N/A   Mostly Cloudy
11:56 PM 34.0 °F 28.0 °F 32.9 °F 96% 29.91 in 4.0 mi NW 6.9 mph - N/A   Overcast